CW4610 Weather Reports


Display with metric or nautical units.
time (UTC)temp
F
wind
direction
speed
MPH
gust
MPH
rain 1hr
in
rain 24hr
in
rain mn
in
humidity
%
barometer
mb
20260905120020 57 90 1.0 2.0 0.00 0.00 0.00 94 1016.5
20260905115020 57 90 1.0 3.0 0.00 0.00 0.00 93 1016.5
20260905114019 57 68 1.0 3.0 0.00 0.00 0.00 93 1016.4
20260905113100 57 68 1.0 2.0 0.00 0.00 0.00 93 1016.4
20260905112020 57 68 0.0 2.0 0.00 0.00 0.00 93 1016.4
20260905111020 58 90 2.0 3.0 0.00 0.00 0.00 92 1016.3
20260905110019 58 113 0.0 1.0 0.00 0.00 0.00 92 1016.1
20260905105019 58 113 0.0 2.0 0.00 0.00 0.00 92 1016.1
20260905104049 58 68 2.0 3.0 0.00 0.00 0.00 92 1016.1
20260905103020 58 68 0.0 2.0 0.00 0.00 0.00 91 1016.1
20260905102059 58 90 0.0 1.0 0.00 0.00 0.00 91 1016.1
20260905101019 58 90 0.0 1.0 0.00 0.00 0.00 91 1016.0
20260905100019 58 113 0.0 1.0 0.00 0.00 0.00 91 1016.0
20260905095020 58 113 1.0 2.0 0.00 0.00 0.00 91 1016.1
20260905094117 58 68 0.0 1.0 0.00 0.00 0.00 90 1016.1
20260905093019 58 63 0.0 0.0 0.00 0.00 0.00 90 1016.0
20260905092019 58 68 1.0 3.0 0.00 0.00 0.00 90 1016.0
20260905091020 58 45 1.0 2.0 0.00 0.00 0.00 90 1015.6
20260905090019 58 42 0.0 0.0 0.00 0.00 0.00 90 1015.6
20260905085019 58 42 0.0 0.0 0.00 0.00 0.00 90 1015.6
20260905084059 58 45 0.0 1.0 0.00 0.00 0.00 90 1015.5
20260905083019 58 64 0.0 0.0 0.00 0.00 0.00 90 1015.5
20260905082019 59 64 0.0 0.0 0.00 0.00 0.00 90 1015.5
20260905081100 59 64 0.0 0.0 0.00 0.00 0.00 89 1015.5
20260905080019 59 64 0.0 0.0 0.00 0.00 0.00 89 1015.5
20260905075019 59 64 0.0 0.0 0.00 0.00 0.00 89 1015.5
20260905074059 59 64 0.0 0.0 0.00 0.00 0.00 89 1015.5
20260905073059 59 64 0.0 0.0 0.00 0.00 0.00 89 1015.5
20260905072100 59 64 0.0 0.0 0.00 0.00 0.00 89 1015.5
20260905071046 59 64 0.0 0.0 0.00 0.00 0.00 88 1015.5
20260905070019 59 64 0.0 0.0 0.00 0.00 0.00 88 1015.4
20260905065018 59 109 0.0 0.0 0.00 0.00 0.00 88 1015.4
20260905064046 59 109 0.0 0.0 0.00 0.00 0.00 88 1015.5
20260905063031 59 109 0.0 0.0 0.00 0.00 0.00 87 1015.4
20260905062018 60 113 1.0 2.0 0.00 0.00 0.00 88 1015.4
20260905061018 60 114 0.0 0.0 0.00 0.00 0.00 87 1015.5
20260905060058 60 114 0.0 0.0 0.00 0.00 0.00 86 1015.4
20260905055019 60 114 0.0 0.0 0.00 0.00 0.00 86 1015.3
20260905054018 60 117 0.0 0.0 0.00 0.00 0.00 86 1015.3
20260905053058 60 117 0.0 0.0 0.00 0.00 0.00 86 1015.2
20260905052018 60 117 0.0 0.0 0.00 0.00 0.00 85 1015.1
20260905051019 60 113 1.0 2.0 0.00 0.00 0.00 85 1015.1
20260905050017 61 90 0.0 1.0 0.00 0.00 0.00 85 1015.2
20260905045058 61 87 0.0 0.0 0.00 0.00 0.00 85 1015.2
20260905044018 61 90 1.0 2.0 0.00 0.00 0.00 84 1015.1
20260905043017 61 90 1.0 2.0 0.00 0.00 0.00 84 1015.1
20260905042020 61 135 2.0 3.0 0.00 0.00 0.00 84 1015.1
20260905041020 61 135 1.0 3.0 0.00 0.00 0.00 83 1015.1
20260905040020 62 90 2.0 3.0 0.00 0.00 0.00 82 1015.0
20260905035019 62 113 2.0 4.0 0.00 0.00 0.00 82 1015.0
20260905034059 62 113 2.0 5.0 0.00 0.00 0.00 81 1014.9
20260905033020 62 90 2.0 5.0 0.00 0.00 0.00 82 1014.6
20260905032020 63 103 0.0 0.0 0.00 0.00 0.00 80 1014.6
20260905031025 63 113 1.0 3.0 0.00 0.00 0.00 79 1014.5
20260905030020 63 19 0.0 0.0 0.00 0.00 0.00 76 1014.4
20260905025020 64 19 0.0 0.0 0.00 0.00 0.00 76 1014.4
20260905024059 64 19 0.0 0.0 0.00 0.00 0.00 75 1014.4
20260905023021 64 23 0.0 0.0 0.00 0.00 0.00 74 1014.3
20260905022100 64 23 1.0 2.0 0.00 0.00 0.00 73 1014.3
20260905021019 65 45 1.0 3.0 0.00 0.00 0.00 72 1014.1
20260905020100 65 23 1.0 2.0 0.00 0.00 0.00 71 1014.0
20260905015100 65 0 2.0 4.0 0.00 0.00 0.00 71 1014.0
20260905014019 65 23 2.0 5.0 0.00 0.00 0.00 69 1014.0
20260905013100 65 23 2.0 6.0 0.00 0.00 0.00 69 1013.8
20260905012019 66 23 2.0 4.0 0.00 0.00 0.00 69 1013.8
20260905011019 66 23 3.0 5.0 0.00 0.00 0.00 68 1013.6
20260905010019 66 23 3.0 5.0 0.00 0.00 0.00 67 1013.6
20260905005020 66 23 3.0 6.0 0.00 0.00 0.00 66 1013.6
20260905004047 67 23 3.0 6.0 0.00 0.00 0.00 66 1013.6
20260905003019 67 0 3.0 8.0 0.00 0.00 0.00 66 1013.5
20260905002020 67 0 4.0 5.0 0.00 0.00 0.00 67 1013.5
20260905001059 68 0 4.0 7.0 0.00 0.00 0.00 66 1013.5
20260905000020 68 338 3.0 8.0 0.00 0.00 0.00 65 1013.5
20260904235020 68 23 3.0 7.0 0.00 0.00 0.00 65 1013.5
20260904234019 68 0 5.0 9.0 0.00 0.00 0.00 64 1013.5
20260904233019 69 0 5.0 8.0 0.00 0.00 0.00 65 1013.6
20260904232019 69 0 2.0 5.0 0.00 0.00 0.00 66 1013.6
20260904231019 69 0 2.0 5.0 0.00 0.00 0.00 65 1013.6
20260904230019 69 23 2.0 4.0 0.00 0.00 0.00 65 1013.5
20260904225020 69 0 4.0 7.0 0.00 0.00 0.00 65 1013.5
20260904224020 69 0 4.0 8.0 0.00 0.00 0.00 65 1013.4
20260904223019 69 0 3.0 5.0 0.00 0.00 0.00 66 1013.5
20260904222019 68 0 4.0 7.0 0.00 0.00 0.00 65 1013.5
20260904221019 68 0 5.0 8.0 0.00 0.00 0.00 65 1013.5
20260904220019 68 315 2.0 4.0 0.00 0.00 0.00 68 1013.4
20260904215019 68 315 1.0 4.0 0.00 0.00 0.00 68 1013.4
20260904214019 68 293 1.0 3.0 0.00 0.00 0.00 67 1013.1
20260904213020 68 293 0.0 1.0 0.00 0.00 0.00 66 1013.1
20260904212059 68 315 2.0 4.0 0.00 0.00 0.00 69 1013.0
20260904211018 68 338 2.0 5.0 0.00 0.00 0.00 67 1013.1
20260904210059 68 315 2.0 5.0 0.00 0.00 0.00 67 1013.1
20260904205019 68 315 3.0 5.0 0.00 0.00 0.00 68 1013.1
20260904204019 68 315 2.0 6.0 0.00 0.00 0.00 66 1013.2
20260904203019 68 293 1.0 5.0 0.00 0.00 0.00 68 1013.2
20260904202019 68 315 4.0 7.0 0.00 0.00 0.00 69 1013.2
20260904201059 67 293 3.0 7.0 0.00 0.00 0.00 70 1013.2
20260904200019 66 293 3.0 8.0 0.00 0.00 0.00 71 1013.4
20260904195019 66 293 4.0 6.0 0.00 0.00 0.00 71 1013.4
20260904194059 66 293 5.0 7.0 0.00 0.00 0.00 71 1013.4
20260904193019 67 315 4.0 6.0 0.00 0.00 0.00 71 1013.4
20260904192019 67 293 4.0 6.0 0.00 0.00 0.00 69 1013.4
20260904191019 67 315 4.0 6.0 0.00 0.00 0.00 69 1013.4
20260904190019 68 315 4.0 6.0 0.00 0.00 0.00 69 1013.3
20260904185018 68 315 3.0 6.0 0.00 0.00 0.00 68 1013.2
20260904184019 68 315 4.0 7.0 0.00 0.00 0.00 67 1013.0
20260904183019 68 293 2.0 7.0 0.00 0.00 0.00 69 1012.9
20260904182019 68 315 5.0 9.0 0.00 0.00 0.00 70 1012.9
20260904181019 67 293 3.0 7.0 0.00 0.00 0.00 70 1012.8
20260904180018 66 315 5.0 9.0 0.00 0.00 0.00 75 1012.7
20260904175018 65 315 5.0 8.0 0.00 0.00 0.00 76 1012.6
20260904174018 65 315 4.0 7.0 0.00 0.00 0.00 78 1012.9
20260904173019 64 315 3.0 6.0 0.00 0.00 0.00 80 1012.8
20260904172018 63 315 5.0 7.0 0.00 0.00 0.00 84 1012.8
20260904171018 62 315 3.0 6.0 0.00 0.00 0.00 85 1012.9
20260904170019 61 315 3.0 6.0 0.00 0.00 0.00 86 1012.9
20260904165018 60 315 4.0 7.0 0.00 0.00 0.00 87 1012.9
20260904164019 60 293 4.0 7.0 0.00 0.00 0.00 87 1012.9
20260904163018 60 293 3.0 6.0 0.00 0.00 0.00 87 1012.8
20260904162019 60 293 3.0 6.0 0.00 0.00 0.00 87 1012.8
20260904161059 60 315 1.0 5.0 0.00 0.00 0.00 89 1012.9
20260904160019 59 315 1.0 3.0 0.00 0.00 0.00 89 1012.9
20260904155019 59 45 0.0 1.0 0.00 0.00 0.00 90 1012.9
20260904154018 58 0 0.0 1.0 0.00 0.00 0.00 91 1012.6
20260904153019 57 23 1.0 3.0 0.00 0.00 0.00 94 1012.5
20260904152058 57 113 0.0 1.0 0.00 0.00 0.00 94 1012.5
20260904151018 56 116 0.0 0.0 0.00 0.00 0.00 94 1012.4
20260904150058 55 135 0.0 2.0 0.00 0.00 0.00 95 1012.3
20260904145018 55 68 0.0 1.0 0.00 0.01 0.00 95 1012.3
20260904144038 54 68 1.0 2.0 0.00 0.01 0.00 95 1012.1
20260904143018 54 68 0.0 1.0 0.00 0.01 0.00 94 1012.0
20260904142058 54 90 0.0 1.0 0.00 0.01 0.00 94 1011.9
20260904141018 54 87 0.0 0.0 0.00 0.01 0.00 94 1011.9
20260904140039 54 87 0.0 0.0 0.00 0.01 0.00 94 1011.6
20260904135058 54 90 1.0 2.0 0.00 0.01 0.00 94 1011.5
20260904134018 54 90 0.0 1.0 0.00 0.01 0.00 94 1011.4
20260904133037 54 90 1.0 2.0 0.00 0.01 0.00 94 1011.4
20260904132018 54 90 2.0 3.0 0.00 0.01 0.00 93 1011.4
20260904131046 54 68 1.0 2.0 0.00 0.01 0.00 94 1011.2
20260904130018 54 71 0.0 0.0 0.00 0.01 0.00 94 1011.3
20260904125017 54 68 0.0 2.0 0.00 0.01 0.00 94 1011.3
20260904124018 54 68 0.0 1.0 0.00 0.01 0.00 93 1011.3
20260904123018 54 68 1.0 2.0 0.00 0.01 0.00 94 1011.1
20260904122018 54 78 0.0 0.0 0.00 0.01 0.00 93 1011.0
20260904121018 54 90 2.0 5.0 0.00 0.01 0.00 93 1010.9